Theta_e
321 323 322 320 320 320 319 320 320 320 321 321 322 321 320 319 318 318 318 318 317 317 317 317 316 316 317 318 318 318 318 318 317 316 315 316 317 318 320 323 326 329 332 333 332 333 334 335 336 336 335 336 335 335 335 335 335 335 334 334 335 335 334 334 334 334 334 334 334 335 335 335 335 335 335 335 335 335 336 337 337 337 337 337 337
321 322 322 321 320 320 319 320 320 320 320 321 320 321 321 319 317 317 317 317 317 318 316 317 316 315 315 317 318 318 318 317 317 316 316 316 316 317 318 320 323 327 329 331 332 331 332 333 334 335 335 335 336 335 335 335 335 335 334 334 334 334 334 334 334 334 334 334 334 334 334 334 335 335 335 335 334 334 334 335 336 336 336 336 337
321 322 321 322 320 320 319 320 319 319 320 321 320 321 321 321 320 319 317 317 317 318 317 316 316 316 315 315 317 317 317 316 316 316 316 316 317 317 318 319 321 323 327 330 332 332 332 333 334 334 335 335 335 336 335 335 336 336 336 335 334 334 333 333 334 334 334 334 334 334 334 334 334 335 336 336 334 334 334 333 333 334 334 335 336
321 321 321 321 321 320 320 319 319 319 319 320 319 319 320 320 321 321 319 318 318 318 317 316 316 316 316 315 315 315 315 316 316 316 316 317 317 317 318 318 319 321 323 326 329 331 332 333 334 335 336 335 336 336 336 335 336 335 335 334 334 334 334 334 334 334 334 335 335 335 335 335 336 337 337 337 335 334 333 333 333 333 333 334 336
320 321 321 321 321 320 320 319 320 320 319 320 320 319 318 317 318 319 318 318 317 318 317 317 316 316 315 315 315 315 316 316 317 317 317 317 317 317 317 318 318 319 321 322 324 327 330 333 334 334 335 336 337 336 335 335 335 335 334 334 334 335 335 334 334 335 336 336 336 336 337 337 337 336 336 336 336 335 335 336 336 336 336 336 336
321 320 321 321 321 321 320 320 320 319 319 319 319 318 317 317 317 316 317 317 317 317 316 316 315 315 315 315 315 316 316 316 317 317 317 317 318 317 318 318 317 318 318 320 320 323 327 330 333 334 334 335 336 336 336 335 335 335 335 335 335 335 334 334 334 335 335 336 336 337 337 337 336 335 336 336 336 338 338 337 336 337 337 337 337
322 321 321 321 320 320 320 320 320 319 319 318 319 318 318 318 317 316 316 316 316 316 316 315 315 315 315 315 315 316 316 316 317 316 317 317 317 317 318 317 317 318 318 317 319 321 323 326 330 333 334 335 335 335 336 336 335 335 335 335 336 336 335 335 336 336 336 337 337 336 337 337 337 337 337 337 338 337 337 336 334 334 335 336 336
323 322 321 320 320 320 320 320 320 319 319 318 318 318 317 318 317 317 316 315 314 315 314 314 314 314 315 315 315 315 316 316 316 316 317 317 317 317 317 318 318 318 317 318 318 319 322 324 327 331 332 334 334 335 335 336 337 337 337 336 336 336 336 336 336 336 337 337 338 338 338 338 338 337 336 336 336 336 336 335 335 335 335 335 335
323 323 322 320 320 320 320 321 320 319 318 318 318 318 317 318 317 316 317 316 314 314 314 313 314 314 314 314 314 314 314 315 316 316 317 316 316 317 317 317 317 315 318 318 319 319 320 321 323 327 329 329 330 333 335 336 337 338 337 337 337 337 337 336 336 336 337 337 338 338 338 337 337 337 336 336 335 335 335 335 335 335 334 335 335
323 322 322 322 321 320 320 320 320 320 319 318 318 318 317 317 317 316 316 317 315 314 314 314 314 315 315 315 315 314 315 315 315 314 315 316 317 317 317 317 317 317 318 318 319 319 319 320 321 322 324 323 325 329 333 335 337 338 338 338 337 337 338 337 337 337 337 337 337 337 337 337 336 336 335 334 334 334 334 335 335 334 334 334 334
323 322 322 321 320 320 319 319 319 319 318 318 318 317 316 316 316 316 314 315 316 315 315 315 315 315 315 315 315 315 315 315 315 315 315 316 317 317 318 318 318 318 319 319 319 319 319 319 319 320 321 320 322 325 329 332 334 336 338 338 337 336 337 337 337 337 337 337 337 337 337 336 335 334 333 333 333 333 333 333 333 333 333 333 333
324 323 322 321 321 320 320 320 319 320 318 317 317 317 316 315 316 316 315 314 313 314 311 311 311 312 312 313 313 314 315 315 315 316 316 317 317 317 317 318 318 318 319 319 319 319 319 319 318 320 320 320 320 322 324 327 328 332 336 337 337 336 336 336 336 337 337 337 336 336 335 335 335 334 333 332 332 332 332 333 333 334 334 333 334
324 323 323 321 322 321 320 320 320 320 319 319 318 318 318 318 318 316 316 315 315 313 311 311 309 312 312 311 312 314 314 315 316 317 317 318 317 317 318 317 318 318 319 319 319 319 320 320 320 320 320 320 321 320 320 324 323 327 332 334 336 336 335 335 336 336 337 337 336 335 334 334 334 334 333 331 331 332 333 333 333 333 333 333 333
323 324 323 323 322 321 321 321 321 320 320 320 319 317 317 318 318 315 315 316 316 315 313 314 309 311 310 310 312 314 315 315 315 317 318 318 319 318 319 318 319 319 319 318 319 319 320 320 320 321 321 321 321 320 320 320 320 322 326 330 333 335 335 334 335 335 336 336 336 335 334 333 333 333 332 332 333 333 333 332 333 333 332 333 333
324 323 324 323 323 322 322 322 321 321 319 319 318 318 318 318 318 318 316 315 316 314 314 316 314 306 308 309 310 306 303 304 311 313 316 317 318 318 319 319 319 319 318 317 319 319 320 320 320 320 321 321 320 320 320 320 320 322 324 327 329 333 334 334 335 335 334 335 335 335 334 333 332 332 332 332 331 332 332 332 332 332 333 333 333
326 325 324 324 324 323 323 322 322 322 321 320 320 319 319 318 319 319 319 317 317 316 316 316 316 311 310 310 307 304 305 302 298 309 311 314 315 315 316 317 318 318 317 318 319 319 320 320 320 320 321 320 320 320 319 319 321 324 325 325 325 330 332 333 335 334 333 334 334 334 333 332 331 332 331 331 331 332 332 332 332 332 332 333 333
327 326 324 325 325 325 324 324 323 323 322 322 321 321 321 321 321 320 320 319 318 318 318 319 318 318 314 306 306 305 306 305 305 309 305 310 311 314 315 315 316 316 316 317 318 319 319 319 319 320 320 320 320 319 319 319 319 318 321 324 327 329 331 332 333 335 334 333 334 334 333 332 332 331 331 331 331 332 332 332 332 332 332 333 333
328 327 326 325 325 324 325 325 324 323 323 324 323 323 322 322 322 322 321 321 320 319 318 318 319 318 319 318 313 306 301 302 307 305 308 311 312 309 313 315 315 316 316 317 318 318 318 319 319 319 319 319 319 319 318 318 317 317 317 319 328 331 333 332 332 333 334 333 333 333 332 331 331 331 331 331 331 332 331 332 331 331 332 332 332
325 327 327 326 325 325 325 325 325 325 324 325 325 324 324 323 323 323 323 322 321 318 318 318 318 319 319 319 318 316 312 309 307 304 307 308 308 309 309 310 314 315 316 317 318 318 318 317 318 318 318 318 318 318 318 318 321 320 324 325 328 331 333 332 332 333 334 333 332 332 331 331 331 331 331 331 331 331 331 330 330 330 331 331 332
313 314 314 317 322 326 326 326 326 326 325 325 325 325 325 326 325 325 324 324 322 320 319 320 318 317 319 318 318 318 319 318 317 313 310 308 311 314 314 314 313 313 315 317 317 317 318 317 317 317 317 318 318 318 318 318 317 318 321 326 329 331 333 334 333 333 334 333 333 332 332 331 331 331 331 331 331 331 330 330 330 331 330 331 331
309 309 309 310 312 314 320 326 326 326 325 325 325 325 325 325 325 325 324 324 324 323 322 320 320 319 318 317 318 318 318 318 318 317 313 310 311 312 314 312 310 315 315 314 316 317 318 318 317 316 317 317 318 318 318 318 318 318 320 324 329 331 333 333 334 334 333 333 333 333 332 332 331 332 331 331 331 330 331 331 331 331 330 330 331
305 306 306 306 308 311 313 314 321 326 324 325 325 325 325 325 325 325 325 324 325 324 322 323 322 322 321 320 317 317 317 317 317 316 316 315 311 313 314 312 312 312 310 312 313 314 316 317 317 317 317 317 318 317 318 318 318 318 317 319 325 330 332 333 333 333 333 333 333 332 332 332 332 332 332 331 331 331 331 331 331 331 331 330 330
302 303 303 304 305 307 308 310 313 317 323 325 325 325 325 325 326 326 325 325 325 325 322 322 323 322 322 321 320 319 317 316 316 317 316 313 313 313 315 315 315 314 316 313 314 315 316 316 317 318 318 318 318 318 318 319 313 314 311 313 318 323 328 331 332 333 332 332 333 333 332 332 332 332 332 331 332 331 332 331 331 331 331 331 330
300 300 300 301 303 304 305 307 309 311 313 318 325 326 326 326 326 326 326 326 326 324 324 323 323 323 322 322 322 322 321 320 320 319 317 316 315 314 315 316 314 315 316 312 315 316 316 317 317 318 318 319 319 318 318 319 318 310 311 312 315 321 327 331 332 333 333 332 333 332 332 332 333 332 332 332 332 332 331 330 331 330 330 329 329
298 298 298 299 300 301 303 304 305 307 308 312 313 318 325 325 325 325 325 325 325 325 324 324 324 322 322 323 322 322 322 323 322 320 320 319 318 315 316 317 314 315 316 312 313 309 316 317 318 318 318 319 319 318 318 318 319 311 307 313 310 314 321 329 332 333 333 332 333 333 333 332 332 332 332 331 332 331 331 330 330 330 329 329 329
296 297 298 298 299 300 302 303 304 304 306 308 310 313 315 322 325 324 324 325 326 325 325 324 324 324 324 323 323 323 323 324 323 322 320 319 317 316 315 315 314 314 316 313 311 312 315 316 318 318 318 318 319 319 318 318 318 309 304 312 314 311 316 323 329 332 332 332 332 333 333 333 333 332 332 331 332 331 331 331 331 330 329 328 327
295 296 296 296 297 298 300 301 301 302 303 304 306 307 310 312 317 323 325 325 326 325 325 325 324 324 324 324 323 324 324 324 324 323 323 321 319 318 316 313 313 314 313 315 314 314 315 316 316 317 318 318 319 319 319 318 313 308 304 312 317 311 313 320 326 330 332 332 332 333 332 332 332 332 332 331 331 331 331 330 330 329 327 327 326
294 294 294 294 294 295 297 298 299 301 301 302 302 304 305 307 310 313 316 324 324 324 324 324 323 324 324 325 324 324 325 325 325 324 323 323 322 321 319 316 312 310 312 312 313 314 316 315 313 317 318 319 319 319 314 315 318 308 304 314 316 314 310 314 320 326 330 331 332 332 332 332 332 332 331 331 331 331 330 330 329 328 326 326 326
292 292 292 293 292 293 293 295 296 298 299 300 300 301 303 304 306 307 310 313 316 322 324 324 324 324 323 323 324 324 324 325 325 324 324 323 323 322 321 318 317 313 311 310 312 313 314 314 312 309 314 318 319 319 318 318 314 312 314 314 316 316 312 311 317 323 326 328 331 332 332 332 332 332 332 331 331 331 330 329 328 327 327 327 326
290 290 290 290 290 291 291 291 292 293 294 296 297 299 301 302 303 304 306 308 310 312 318 323 323 323 323 323 323 323 324 324 325 325 324 324 323 322 321 320 319 315 314 311 312 316 315 310 313 312 310 314 317 318 317 318 310 312 315 314 315 316 310 309 312 317 320 324 327 330 331 332 332 332 332 331 331 330 330 329 328 328 327 327 326
289 289 289 289 289 289 290 290 290 291 291 292 294 296 298 299 300 301 303 305 306 307 310 314 320 322 322 322 323 323 324 323 324 324 324 323 323 323 322 321 320 318 317 315 311 316 318 317 315 314 314 312 315 316 316 316 313 312 316 314 314 309 307 308 307 312 318 322 325 327 330 331 331 331 331 331 331 331 331 330 329 328 328 326 325
288 289 288 288 288 288 289 289 289 289 290 290 291 292 295 296 297 298 300 303 304 305 307 309 311 316 321 321 321 322 323 323 323 323 322 322 322 322 322 321 320 320 318 316 313 313 317 317 316 314 314 314 311 313 315 315 314 306 315 315 314 306 309 313 305 307 312 317 319 320 322 324 329 330 330 330 330 331 331 330 329 328 327 325 320
288 288 287 287 288 288 288 288 288 288 289 289 290 290 291 291 293 296 299 302 301 300 300 301 305 307 310 316 320 322 323 322 322 323 322 322 322 322 321 321 320 320 319 317 314 314 317 318 317 316 313 313 313 313 314 313 312 310 310 313 312 313 313 313 311 304 307 311 316 318 319 318 321 327 329 329 330 330 330 329 328 327 322 316 315
287 287 287 287 287 287 287 287 288 288 288 289 289 289 289 290 291 295 297 297 296 296 298 298 301 302 304 304 307 318 323 321 322 321 322 322 321 321 320 320 320 320 320 318 316 315 314 316 314 313 313 315 317 312 315 313 313 308 309 311 312 313 313 313 311 310 305 309 313 315 316 315 315 316 317 318 325 325 326 325 317 313 311 311 310
287 287 286 286 287 287 286 287 287 287 287 288 288 289 289 289 290 292 293 293 292 294 295 296 297 300 301 301 303 306 313 319 321 321 321 321 321 320 320 320 320 320 320 320 317 315 314 316 318 316 315 313 317 315 314 316 315 312 311 311 312 312 312 313 312 311 306 308 310 312 313 313 313 313 313 313 316 315 312 310 309 309 308 308 309
286 286 286 286 286 285 286 286 286 286 287 287 287 288 288 288 289 289 289 289 291 291 293 294 295 297 297 299 301 302 304 307 316 321 321 321 321 320 320 320 320 320 320 320 319 317 316 314 316 316 314 314 313 315 316 315 314 311 312 313 311 312 312 312 312 311 307 306 308 309 310 311 311 312 312 311 310 310 309 308 307 306 306 307 307
285 285 285 285 285 285 285 285 285 285 286 286 286 287 287 288 288 288 287 289 289 290 290 291 293 293 295 296 298 300 301 303 305 312 320 319 320 320 320 320 320 320 320 320 319 319 317 315 315 315 313 313 314 314 315 312 307 309 306 311 312 312 311 311 311 311 305 303 306 306 307 308 308 309 309 308 307 307 306 305 304 304 305 305 306
284 284 284 284 284 284 284 284 285 285 285 286 286 286 286 287 287 287 287 288 288 289 289 290 290 291 292 293 296 297 299 300 302 305 310 317 320 320 319 320 320 320 319 318 318 317 317 316 316 315 306 310 304 304 309 313 310 307 302 305 306 310 310 310 310 309 309 308 308 308 305 306 306 306 306 306 305 305 304 303 302 302 303 304 304
283 283 284 283 283 284 284 284 284 284 284 285 285 286 286 286 286 286 286 287 287 288 288 288 289 290 291 292 294 296 297 298 300 301 302 300 304 315 319 319 319 319 317 317 317 316 316 316 315 316 316 312 313 311 306 310 313 312 309 306 307 307 309 311 308 305 307 307 305 304 306 306 303 304 304 304 303 303 302 302 301 301 301 302 302
283 283 283 283 283 283 283 283 283 284 284 284 284 285 285 285 285 286 286 286 286 286 287 287 288 289 290 291 292 294 295 296 297 297 298 298 300 301 308 317 319 318 317 316 315 315 315 315 315 314 315 315 309 309 303 304 305 304 308 310 310 308 307 307 308 305 304 306 304 303 300 300 300 301 302 302 301 301 301 300 299 299 299 301 301
283 283 283 283 282 282 282 282 282 283 283 283 284 284 284 285 285 285 285 285 285 285 285 286 287 287 288 289 290 291 293 292 291 291 293 294 298 300 303 307 315 318 317 317 316 315 314 314 314 315 314 313 313 311 307 307 309 311 309 308 310 308 308 305 301 303 304 303 302 302 302 303 302 301 301 300 300 300 299 299 298 297 298 300 301
280 281 281 281 281 281 281 281 281 282 282 283 284 286 287 285 285 285 285 284 284 284 285 285 285 286 287 287 289 289 288 289 290 291 293 294 294 296 299 301 303 310 316 316 315 315 315 313 313 313 311 312 312 311 310 311 313 308 307 307 309 308 306 306 301 297 300 302 299 298 298 301 301 299 299 298 298 298 298 297 297 298 299 300 300
280 280 280 280 280 281 280 280 280 281 281 283 285 286 286 287 285 284 284 283 284 284 284 284 284 284 285 287 287 288 289 289 292 292 293 293 294 294 295 295 296 301 304 312 316 315 313 313 313 312 312 312 313 312 311 312 311 311 311 309 310 306 305 303 301 296 296 301 300 300 296 296 298 297 297 297 297 297 298 298 298 298 299 299 299
280 280 280 280 280 280 280 280 280 280 280 283 285 285 286 286 286 285 283 283 283 283 283 283 284 284 284 285 286 288 289 290 291 293 293 293 293 294 294 295 296 296 298 301 307 313 314 314 313 313 313 312 313 312 311 311 311 311 311 310 309 308 306 305 305 303 299 300 298 299 297 295 297 296 295 295 296 297 297 297 298 299 299 299 299
279 279 279 279 279 279 279 279 279 280 280 283 284 285 285 286 286 285 283 283 282 282 283 283 283 284 284 285 285 287 288 288 290 292 293 294 293 294 293 294 295 296 298 299 299 303 312 315 314 313 313 313 312 312 312 312 311 310 310 309 309 309 308 307 307 306 296 301 300 297 295 294 295 295 295 294 295 295 296 296 298 299 299 299 298
279 279 279 279 279 279 279 279 279 279 279 282 284 285 285 285 286 285 283 282 282 282 282 282 283 283 284 284 284 285 287 288 289 290 292 294 294 295 296 297 297 297 296 297 297 296 298 306 313 313 314 314 313 314 313 311 311 310 309 309 309 309 308 308 310 308 298 302 302 298 293 292 293 294 293 293 293 294 294 297 298 299 298 298 297
279 278 279 278 279 279 279 278 278 278 279 283 284 284 285 285 285 285 282 282 281 281 281 282 282 283 284 285 285 285 286 287 288 290 290 292 292 293 294 294 295 296 297 299 302 307 305 306 308 312 315 316 315 315 314 313 314 314 313 311 311 311 311 304 299 297 298 301 304 302 298 294 293 293 292 291 292 292 293 297 298 298 298 297 297
279 279 279 279 278 278 278 278 278 278 278 282 283 284 284 284 285 282 281 280 280 280 280 281 282 283 283 284 284 285 286 286 288 290 290 291 291 292 292 293 293 295 297 297 298 299 304 309 311 312 314 316 310 314 312 313 314 315 310 309 308 306 302 301 302 294 296 298 302 303 297 292 293 294 290 289 290 290 292 293 297 297 297 297 296
278 278 278 278 278 278 278 278 277 277 278 280 282 283 283 284 283 280 280 279 279 279 279 280 281 282 283 283 284 285 285 286 288 290 291 290 290 290 291 291 292 293 294 298 298 298 299 299 300 302 304 306 307 306 306 305 308 312 311 305 303 303 302 300 299 295 297 297 298 302 297 292 292 292 288 288 289 289 290 291 293 296 296 296 296
277 278 278 278 278 278 277 277 277 277 277 279 281 282 282 283 282 280 279 279 278 279 279 280 281 282 282 284 284 284 285 286 288 290 291 290 288 289 290 290 290 290 292 295 298 301 299 299 298 299 300 302 303 304 304 304 304 306 310 305 304 304 302 302 300 296 296 296 297 299 295 292 291 290 287 286 287 287 288 289 291 293 295 295 295
277 278 277 277 277 277 277 277 277 277 277 278 280 281 281 282 281 279 279 278 278 278 279 279 280 281 282 283 284 284 285 286 289 289 290 288 288 289 290 290 289 289 290 293 295 297 300 302 305 303 301 299 302 306 305 300 301 301 311 311 308 304 302 302 301 294 292 292 295 297 297 289 290 289 288 286 285 285 286 287 289 289 290 291 292
Wind_Speed
7 6 5 6 6 6 5 6 5 6 5 5 6 5 4 4 4 4 4 5 5 5 5 5 4 5 5 6 5 6 6 6 6 7 6 6 6 7 10 10 10 12 15 17 18 18 19 19 18 18 19 19 19 20 19 19 19 18 18 18 18 18 18 18 17 17 17 18 17 16 15 15 15 15 15 15 15 14 14 14 15 16 16 16 16
7 6 6 6 6 5 5 5 6 5 5 6 5 6 5 5 4 4 4 5 5 6 5 6 5 4 5 6 6 7 7 7 7 7 6 6 6 6 10 11 11 11 14 15 17 19 19 19 20 19 19 19 19 19 19 19 20 19 19 18 19 19 19 18 17 17 16 16 16 16 16 16 16 16 16 16 16 16 16 15 15 14 14 14 15
6 7 6 6 6 6 6 5 5 5 6 6 5 6 6 6 6 6 6 6 6 6 6 6 6 5 5 6 7 6 6 6 6 6 6 6 6 6 7 11 12 12 12 15 17 19 20 19 20 19 19 19 19 19 19 19 19 19 19 19 19 19 19 19 18 17 17 16 16 17 17 17 17 17 17 16 16 16 16 16 16 16 15 15 15
7 6 7 7 6 7 6 6 6 6 6 6 6 6 6 6 6 6 6 6 6 6 6 6 6 7 6 6 6 6 6 7 7 6 6 6 6 6 6 7 10 12 13 13 16 18 18 19 20 20 20 20 20 19 19 19 19 19 20 20 20 19 20 20 19 18 17 16 17 17 17 17 17 15 14 14 15 16 17 17 16 16 16 16 15
7 7 7 7 7 7 7 7 7 6 6 7 7 6 5 5 6 5 5 5 5 6 5 6 7 7 6 6 6 6 6 6 6 6 6 6 7 7 6 7 7 10 14 15 15 15 17 19 19 20 20 20 20 20 20 20 20 20 20 20 20 20 21 20 19 17 16 17 16 16 16 15 14 14 14 14 14 14 14 14 14 14 15 15 15
7 7 7 7 7 8 8 8 7 6 6 6 7 6 6 6 7 6 6 6 7 7 7 7 7 7 7 6 6 6 6 6 7 7 7 7 7 6 7 6 6 7 7 12 14 14 15 17 18 19 19 20 21 21 21 21 21 21 21 20 20 21 20 20 18 16 16 15 14 14 15 15 15 16 15 14 13 10 11 12 13 13 14 13 13
7 8 8 7 7 7 8 7 7 7 7 7 7 7 7 8 7 7 7 7 7 7 7 7 7 7 7 6 7 6 6 7 7 7 7 7 7 6 7 7 7 7 7 7 8 13 14 15 17 18 19 19 20 21 21 21 21 21 22 22 22 22 22 21 18 16 15 16 16 16 16 16 16 14 13 11 11 11 12 12 12 12 12 13 13
7 7 7 8 7 8 8 7 7 6 7 7 7 7 7 7 7 7 7 7 6 7 6 6 6 7 6 6 6 6 7 6 7 7 7 7 7 7 7 7 7 7 7 7 7 8 13 14 15 17 18 18 19 20 21 21 22 21 22 23 23 23 22 21 20 17 16 16 15 16 16 15 13 11 10 9 8 9 11 12 11 12 13 13 13
8 7 7 8 8 8 7 7 6 7 7 6 7 7 7 7 6 7 6 7 6 6 5 5 5 6 6 6 6 6 7 7 7 7 7 7 7 7 7 7 7 8 7 7 7 7 10 15 15 16 17 18 18 19 20 21 22 22 22 23 23 22 23 23 22 19 17 15 15 14 13 12 12 11 9 10 10 12 11 12 11 10 11 12 13
9 7 7 7 7 8 7 7 7 7 6 6 7 6 6 6 7 6 6 6 6 6 6 6 5 6 7 7 7 7 7 7 7 7 7 9 8 8 8 7 7 8 7 8 8 8 8 10 15 17 18 17 17 17 19 20 22 23 23 23 23 24 22 24 22 20 17 17 15 14 13 11 9 7 9 12 13 14 14 12 10 11 12 12 11
9 9 8 7 6 6 6 7 7 7 7 7 6 6 5 5 6 6 4 6 6 7 7 6 6 6 7 8 7 7 7 6 7 7 7 8 9 9 7 9 7 8 9 8 8 7 8 7 7 8 10 15 16 17 17 19 20 21 22 23 23 24 24 23 21 19 17 16 14 11 11 8 9 10 11 12 13 13 12 12 12 12 13 12 12
10 9 8 8 7 6 7 6 6 6 7 7 7 6 7 6 7 7 6 5 5 5 4 4 4 6 8 7 6 6 7 7 7 8 8 9 9 8 9 9 8 10 9 8 7 8 8 8 7 8 8 11 15 17 18 18 19 19 20 21 23 24 24 23 22 21 17 14 12 10 7 9 11 11 13 14 14 14 12 11 11 11 12 11 11
9 9 9 8 7 7 6 6 6 7 7 8 8 8 8 8 7 6 8 7 6 4 3 3 3 6 6 6 7 7 9 8 10 9 10 9 8 9 9 9 10 10 9 7 8 8 8 8 8 8 8 7 10 15 16 15 17 17 18 20 20 22 23 22 22 21 17 13 13 11 11 11 12 14 14 13 14 14 13 13 12 12 11 10 10
9 9 9 8 7 6 7 8 7 7 8 7 6 7 7 7 5 5 5 8 7 5 4 4 3 6 6 7 7 7 9 9 11 12 12 10 9 9 10 10 12 10 7 7 8 8 9 9 8 8 8 8 8 8 9 10 12 15 16 17 18 19 20 21 21 20 16 12 12 12 12 13 14 15 14 14 13 13 12 11 11 10 10 10 10
6 8 8 8 8 8 8 7 7 7 7 7 6 7 8 9 8 9 6 4 6 3 5 7 6 0 0 3 8 7 4 3 6 10 9 10 9 11 12 10 14 10 7 7 9 9 8 8 9 9 9 9 8 8 8 8 9 11 13 14 15 17 18 18 19 19 17 13 11 10 12 13 14 14 14 14 13 11 11 11 10 10 10 10 10
5 7 6 7 8 9 8 6 8 7 8 8 7 8 7 7 8 9 8 8 6 5 6 6 5 2 6 6 3 1 10 5 4 6 7 9 9 10 8 10 11 9 6 9 10 9 9 8 9 9 9 9 8 8 8 7 9 11 12 12 13 15 17 18 18 18 17 13 10 11 12 14 14 14 14 14 12 11 11 10 10 10 10 10 10
3 5 5 8 7 8 8 8 8 7 7 8 8 9 9 8 10 9 10 10 8 5 4 7 7 6 6 1 2 1 6 6 6 7 2 1 4 8 9 10 9 8 7 10 9 9 8 8 9 8 9 8 8 8 7 7 7 7 8 11 13 14 15 17 17 17 17 16 13 11 13 14 14 14 14 13 11 11 10 11 10 10 9 9 8
6 5 7 7 9 8 8 8 7 7 7 8 9 7 8 9 10 9 11 11 11 8 7 6 10 10 11 10 6 5 2 2 3 7 5 5 8 3 5 6 7 7 7 9 9 8 7 9 8 9 8 8 8 8 7 7 7 7 6 7 13 14 15 16 17 16 17 16 14 11 11 13 15 15 14 12 11 11 11 10 10 9 8 8 8
14 12 7 7 7 8 8 9 9 9 8 9 9 10 9 9 8 9 9 9 9 10 11 8 6 9 11 13 14 11 6 5 6 2 12 4 2 4 4 3 5 6 9 9 9 8 7 7 8 8 7 7 7 7 7 7 8 8 11 11 13 14 15 17 17 17 17 16 16 16 14 15 15 13 12 13 12 11 11 10 9 8 8 8 8
15 15 17 17 13 7 7 8 9 10 9 9 10 10 9 8 10 11 10 10 10 10 10 9 9 7 9 11 12 13 13 13 12 10 8 12 17 4 7 7 6 7 8 9 8 8 8 7 8 7 7 8 8 7 7 7 7 7 7 12 13 14 15 16 17 17 17 16 16 16 14 14 14 14 13 13 12 12 11 10 9 9 8 8 8
14 16 16 17 15 15 15 9 8 9 8 8 9 10 12 12 11 10 10 10 10 10 10 10 10 10 7 10 11 11 10 11 12 11 11 10 13 15 15 2 4 8 8 7 8 7 8 8 8 8 8 8 7 7 7 7 7 7 7 12 14 15 15 16 17 17 17 17 16 16 15 15 15 14 13 13 13 12 11 10 10 9 8 7 7
14 15 17 17 16 16 14 16 15 10 7 8 9 9 10 11 12 12 13 13 11 11 12 11 10 10 11 8 9 9 10 10 10 11 11 13 13 14 11 8 11 8 1 6 6 5 7 7 8 8 8 8 7 7 7 8 8 7 9 13 14 14 15 17 17 17 17 17 17 17 15 15 15 14 14 14 13 12 12 11 11 10 9 8 7
13 14 13 15 17 15 15 16 15 16 10 7 8 9 10 11 11 12 13 14 12 12 12 12 10 10 11 9 11 10 10 9 8 8 10 8 9 13 15 9 9 13 11 3 7 7 7 7 9 9 8 8 8 7 8 8 9 10 13 14 14 14 14 16 17 17 17 18 17 16 15 16 16 15 15 14 14 13 13 13 12 11 10 9 9
14 13 14 17 14 13 15 14 14 14 16 15 11 9 10 8 9 9 10 12 12 11 12 13 14 11 11 10 10 10 10 10 10 7 7 9 8 10 11 8 6 9 10 4 6 9 9 9 9 9 9 8 8 8 8 9 9 14 12 13 14 14 14 16 18 18 18 18 17 17 16 16 17 17 15 15 14 14 14 14 13 11 11 10 9
11 11 14 16 13 14 13 14 14 15 16 15 15 17 11 8 8 9 9 10 12 13 12 12 12 11 11 12 12 12 13 11 10 11 10 10 11 12 14 9 10 12 9 3 7 3 7 9 9 9 8 9 9 8 8 8 8 11 14 10 15 14 15 15 17 19 19 19 18 18 17 17 17 17 16 14 15 14 14 13 12 11 10 9 7
10 10 10 12 12 11 12 12 12 12 12 14 15 14 16 13 10 9 10 10 9 11 12 13 13 16 13 11 10 10 11 11 12 12 12 10 10 12 12 7 7 10 9 5 2 5 6 6 6 7 8 9 8 7 8 9 8 11 14 10 12 15 14 14 16 18 20 20 19 19 18 18 18 18 16 15 14 13 12 11 10 9 8 6 7
11 10 11 11 11 13 13 12 13 13 14 15 14 14 14 13 13 11 9 9 10 11 11 15 14 13 12 11 11 12 12 11 10 11 11 11 10 8 7 11 9 8 11 8 7 9 16 8 5 6 8 8 7 7 8 7 9 12 13 11 8 14 15 15 16 17 19 20 20 20 19 19 18 18 17 14 13 12 11 10 9 9 9 9 9
9 11 12 11 11 12 12 13 14 13 13 14 15 13 14 14 13 13 14 10 9 10 10 10 11 14 14 13 12 12 12 13 12 12 11 10 10 10 10 11 11 13 9 10 8 12 8 9 4 8 8 8 7 7 8 9 8 13 13 9 8 9 14 15 16 16 17 19 21 20 20 19 19 18 18 16 12 13 12 11 10 10 10 10 10
10 10 11 11 11 12 11 11 12 13 14 14 14 13 14 13 13 15 15 16 16 13 10 10 11 11 10 12 11 10 10 10 10 10 10 10 9 10 11 13 11 11 10 9 12 9 6 7 4 3 4 5 6 6 7 8 9 10 8 9 9 8 11 15 16 16 16 15 17 20 21 20 19 18 18 17 15 15 14 14 14 13 12 11 11
10 10 11 14 13 14 14 13 12 13 13 13 14 14 14 12 13 12 11 13 13 13 13 11 10 9 9 9 10 12 12 12 12 11 10 11 11 11 10 8 8 11 9 10 13 7 8 4 6 5 1 4 5 5 6 7 9 11 7 8 8 8 12 15 16 16 15 15 15 16 20 20 19 18 18 17 16 17 16 16 15 14 13 12 11
11 13 13 14 13 14 14 14 14 14 14 14 14 13 13 12 13 12 13 13 13 13 13 14 13 10 10 11 9 10 10 9 11 10 10 11 11 11 11 10 10 11 10 9 11 12 5 11 5 5 5 4 4 4 4 5 5 9 8 7 7 10 13 12 16 15 15 15 15 15 15 19 20 19 19 17 17 16 17 17 16 15 14 12 9
11 12 12 12 13 15 14 14 15 14 15 14 14 14 13 11 12 12 13 14 14 15 15 14 13 15 14 12 11 10 10 9 9 9 9 10 10 11 12 10 10 11 11 10 12 17 5 7 6 5 6 5 3 4 6 4 4 9 7 7 8 10 9 7 12 15 15 15 15 14 15 14 15 18 19 18 18 19 19 17 17 15 14 9 9
10 12 12 13 14 13 14 14 14 15 15 15 14 13 14 14 13 13 14 14 15 13 13 16 16 16 17 16 12 10 10 10 9 9 10 10 10 10 10 10 11 11 11 11 12 13 13 6 7 7 6 5 4 5 6 5 4 4 5 6 5 7 7 7 7 13 15 15 15 15 14 13 12 13 15 16 16 18 17 17 16 13 9 11 10
10 11 12 11 12 13 13 14 14 14 14 15 14 13 14 15 15 11 13 14 15 14 13 15 15 15 16 16 18 18 11 10 11 10 9 9 9 10 11 10 9 9 10 10 12 11 16 6 5 3 5 4 8 5 6 5 5 4 6 6 6 7 8 7 7 8 15 15 15 15 14 13 13 12 12 10 10 9 11 13 9 14 13 12 10
9 9 11 11 12 12 12 13 13 13 14 13 13 13 13 13 14 13 13 14 14 14 16 15 14 15 16 16 17 17 17 15 12 11 11 11 10 10 12 11 12 12 11 12 11 11 13 15 9 7 7 5 9 7 7 7 7 6 7 7 8 6 6 7 8 7 14 15 16 15 15 15 14 13 11 11 10 10 10 13 13 13 13 11 10
10 9 10 10 11 12 13 13 13 13 14 13 13 12 13 13 14 15 14 13 13 14 13 14 16 14 15 17 16 17 17 19 18 12 10 11 10 10 12 11 12 12 12 11 13 11 11 13 13 8 6 7 7 5 6 7 8 7 8 7 5 7 7 7 7 7 11 17 17 17 17 15 14 13 12 12 13 14 15 15 14 13 13 12 12
9 10 10 9 10 11 12 13 14 14 13 14 14 14 13 12 13 13 15 14 13 13 14 14 14 14 16 15 17 16 16 17 17 17 14 13 11 12 12 11 11 11 10 11 12 12 12 13 12 7 7 7 7 7 8 7 4 5 4 7 8 8 7 6 6 6 10 18 18 18 16 15 14 13 13 14 15 15 15 15 15 14 14 13 13
10 9 10 10 9 11 11 12 12 13 13 13 13 13 13 12 12 13 12 12 13 13 13 12 14 15 14 16 16 15 16 15 16 16 18 18 15 13 13 12 11 11 11 11 11 12 13 13 12 13 5 7 5 5 6 8 7 6 5 5 4 5 6 6 6 5 4 6 5 5 6 9 13 15 14 14 15 16 16 15 15 15 15 14 14
9 10 10 10 9 10 10 10 11 12 13 13 12 13 13 13 14 14 13 14 13 12 12 13 14 13 14 14 14 15 14 15 15 16 16 19 19 19 14 14 12 12 12 12 11 12 12 12 11 12 12 8 9 10 5 6 9 9 9 6 7 5 7 9 8 4 4 4 2 5 8 11 12 11 13 15 15 14 15 16 15 15 14 14 14
7 9 10 11 10 9 10 10 10 10 11 12 12 12 12 13 14 14 13 13 14 15 14 14 13 13 12 13 15 14 15 15 15 16 16 16 16 18 18 16 13 13 13 11 11 11 12 12 12 11 11 11 6 6 3 5 5 5 6 9 12 10 8 7 9 10 6 7 7 5 3 6 6 7 9 10 12 14 15 15 16 15 14 13 12
6 7 8 8 10 12 11 10 10 10 10 10 9 11 13 15 14 14 15 15 15 15 16 16 15 15 14 14 13 14 16 19 22 20 19 16 12 14 17 17 17 14 14 12 12 11 11 11 12 11 10 11 10 9 8 9 12 13 8 7 8 6 7 7 5 5 9 9 6 7 8 8 8 8 7 6 8 12 11 13 12 15 14 14 14
7 8 7 7 7 9 12 12 10 9 9 9 11 18 18 14 15 13 14 15 15 14 15 15 16 16 16 14 15 20 20 21 21 21 20 20 20 15 13 15 16 18 14 13 13 12 12 12 13 12 11 12 11 11 12 13 12 6 7 10 11 8 7 9 5 3 5 9 9 8 6 4 8 7 7 7 6 8 8 9 10 13 15 16 14
8 9 8 9 9 8 9 10 12 12 10 9 17 19 20 23 17 14 15 15 15 15 14 14 15 16 16 17 15 16 17 18 17 20 21 22 21 22 24 21 17 16 17 17 14 14 13 13 12 11 12 14 14 11 13 13 11 13 12 11 11 7 9 10 10 1 2 8 9 10 8 5 6 9 8 8 9 7 6 7 12 16 18 17 16
9 7 9 10 10 10 9 9 10 11 12 14 18 19 21 22 20 16 14 14 14 14 14 14 14 14 15 16 15 13 13 15 17 17 19 20 21 21 22 23 24 25 21 18 16 13 12 13 13 14 12 14 14 11 12 11 11 11 11 12 12 12 11 12 10 10 7 11 7 8 9 5 6 7 7 7 8 8 8 10 15 16 17 17 17
7 9 10 10 10 10 10 11 12 11 12 14 21 22 22 22 23 20 13 14 15 15 15 15 15 14 13 14 15 14 13 18 16 15 15 16 19 20 21 22 21 22 23 22 22 20 15 14 15 16 15 14 14 12 13 13 10 12 11 11 11 12 12 13 11 8 6 14 10 6 8 7 7 10 10 7 7 7 8 11 15 15 15 15 16
8 9 10 11 11 11 10 11 12 12 13 13 21 23 24 25 24 21 14 15 15 15 16 15 14 15 14 13 14 15 15 15 14 14 13 14 16 17 15 15 15 18 21 24 21 23 22 18 16 16 16 14 14 14 13 12 13 14 13 14 13 13 13 15 16 11 7 12 15 10 5 6 5 5 7 7 7 7 7 11 16 15 15 15 14
9 10 11 11 11 11 11 11 12 13 13 18 21 23 24 26 27 22 15 14 14 15 15 15 15 15 15 14 14 15 15 14 13 15 15 15 14 14 15 16 15 16 16 17 17 14 12 13 16 18 17 14 15 15 11 12 16 16 15 16 17 16 16 6 4 6 10 14 13 12 13 10 7 7 5 6 7 6 6 11 14 14 15 15 14
9 9 10 10 12 13 12 12 13 15 14 19 22 23 25 25 27 18 15 15 15 15 15 15 14 14 14 14 14 15 14 14 16 20 18 16 16 14 16 16 16 15 15 17 21 22 19 16 14 16 17 17 15 14 12 13 14 13 11 10 8 8 7 8 12 6 9 10 11 13 6 8 10 12 8 5 5 7 6 6 12 14 15 15 15
11 11 12 12 11 12 14 14 15 16 15 17 21 24 25 27 22 16 15 15 15 16 16 15 14 14 14 14 14 14 15 14 16 20 20 19 15 15 16 16 14 15 16 17 18 21 22 23 24 25 25 25 22 21 20 21 16 14 11 9 10 10 11 9 7 7 10 12 11 11 7 11 10 8 8 5 6 7 7 7 7 12 15 15 15
13 13 12 12 12 12 14 15 15 16 17 17 22 25 26 28 24 18 15 15 16 16 16 15 13 13 15 21 19 16 15 15 18 20 21 18 15 15 15 16 17 17 16 15 13 14 20 21 22 25 26 26 25 22 21 21 22 17 13 15 13 11 12 12 12 11 7 9 13 11 8 9 10 8 9 5 4 1 4 4 7 9 13 14 15
13 12 12 12 13 13 13 15 17 19 17 18 22 26 29 28 23 16 15 15 16 16 15 16 15 13 14 15 19 18 17 18 22 21 22 19 15 14 14 15 18 18 15 14 14 15 15 15 14 13 16 19 19 16 14 20 23 20 17 17 12 14 14 14 11 6 4 6 8 9 10 7 12 10 12 7 2 0 1 4 6 6 7 7 8
Wind_Direction
191 195 181 191 194 192 186 195 192 198 185 197 183 188 194 190 200 209 211 216 221 232 233 238 228 224 223 239 238 241 243 243 241 242 238 236 241 243 246 250 252 254 255 260 265 268 269 269 268 267 267 267 266 264 263 263 263 263 264 263 262 262 262 261 260 260 261 260 260 261 263 264 267 267 267 267 270 273 278 274 267 267 269 270 271
192 192 185 196 196 195 191 196 198 197 184 200 208 189 199 199 207 216 219 226 227 235 232 244 239 225 225 236 242 239 235 235 237 235 235 229 229 234 240 244 246 246 250 254 261 267 268 268 268 268 268 269 269 267 265 264 264 264 264 264 263 263 262 261 262 260 259 258 261 262 262 262 262 261 259 259 263 269 268 273 275 276 275 275 271
188 189 192 194 195 193 199 196 204 203 191 203 201 202 199 205 206 211 216 222 229 233 229 240 248 243 228 227 237 232 232 230 234 235 236 237 236 237 241 241 245 249 250 253 257 263 266 266 266 267 267 268 267 267 267 266 265 264 264 264 263 263 263 262 260 258 259 259 257 258 258 256 256 254 251 256 265 266 269 273 275 275 275 274 271
184 186 189 192 197 197 199 196 207 205 197 201 200 206 203 209 215 217 218 217 228 234 230 230 244 246 242 230 229 227 231 229 229 231 238 244 242 246 247 249 251 253 255 256 259 260 261 263 265 265 266 267 268 267 266 267 266 264 263 263 263 262 262 262 262 263 262 259 257 256 254 253 252 251 251 254 257 265 269 268 266 267 266 264 263
188 183 186 192 195 196 199 203 205 204 200 203 204 204 213 220 229 226 230 229 235 245 241 234 240 242 233 234 228 236 238 247 252 252 250 250 248 246 248 246 247 252 254 255 256 256 258 259 260 262 264 265 266 267 267 266 265 265 265 263 263 262 262 262 262 259 255 254 253 253 253 251 253 259 261 260 259 259 264 271 276 277 271 269 269
183 185 185 191 197 198 198 202 205 205 203 201 205 204 209 213 225 218 231 224 227 231 230 237 235 240 242 244 246 248 249 250 248 246 245 246 245 244 244 242 244 247 252 254 254 255 255 256 256 257 259 262 264 266 267 267 266 266 265 264 262 263 262 262 260 258 257 257 256 256 256 254 255 254 253 254 260 252 247 255 263 270 273 268 265
190 181 186 188 193 200 202 203 199 200 200 203 201 207 206 213 211 218 227 227 226 224 219 226 231 239 243 243 247 248 248 245 245 249 245 245 242 242 239 239 238 243 248 249 252 251 251 253 256 256 256 257 261 264 266 266 266 266 265 264 263 262 262 262 260 258 254 250 249 251 253 255 256 256 256 260 259 254 252 256 266 271 271 269 264
199 182 182 188 191 199 204 199 198 193 201 199 198 205 207 214 213 205 214 230 222 238 226 237 239 248 248 247 247 244 246 247 251 251 247 247 243 243 240 241 242 242 244 247 248 247 246 249 250 254 256 254 256 260 262 263 264 264 264 264 263 262 262 261 260 257 257 256 251 249 251 254 255 255 258 260 266 268 268 266 262 261 263 268 269
205 198 181 187 193 198 202 202 196 196 197 198 200 202 197 209 218 212 206 220 218 236 240 235 245 247 249 248 247 243 244 242 244 246 249 245 244 240 242 244 244 246 245 249 250 250 249 246 249 250 252 254 255 255 256 259 259 261 263 264 263 263 261 261 261 260 258 256 254 254 252 252 251 248 242 251 258 260 256 259 266 273 271 269 275
206 204 198 192 192 193 194 197 196 200 202 198 210 202 201 199 220 220 212 217 226 230 244 250 245 252 252 248 248 241 245 245 243 244 241 248 245 245 241 242 241 242 244 245 246 246 247 248 247 249 251 251 251 250 252 254 256 256 260 261 262 263 262 262 261 259 257 258 257 257 259 259 261 249 261 268 269 265 261 254 253 258 262 266 269
207 202 201 199 198 198 192 192 190 197 200 206 214 210 207 203 211 226 219 222 221 222 228 234 252 257 256 254 251 250 253 251 252 252 249 250 251 252 249 248 242 244 245 244 245 242 243 240 239 244 251 249 246 246 246 248 251 253 255 260 264 263 261 262 261 259 255 253 253 253 255 246 233 246 259 264 266 271 269 266 265 265 266 267 265
208 207 205 199 197 202 200 190 191 191 200 208 216 207 208 208 219 212 219 235 235 232 215 219 259 259 262 268 258 261 259 252 251 247 249 248 250 250 250 251 244 249 243 241 240 242 242 243 238 240 245 248 246 246 244 244 248 249 251 255 260 261 259 259 260 259 255 252 256 256 248 257 258 256 259 259 261 262 260 258 258 261 266 268 271
205 204 209 203 203 201 198 197 192 198 204 214 207 208 209 206 209 199 207 223 240 213 224 174 238 281 263 270 281 252 252 252 254 253 247 248 246 248 250 252 248 249 243 234 237 238 240 240 240 240 241 241 245 244 242 240 243 244 247 252 254 258 257 256 257 257 255 248 246 239 245 251 255 252 251 257 257 254 256 258 261 265 266 269 270
203 205 206 201 202 202 203 203 195 203 212 213 213 214 213 215 206 220 215 215 235 188 198 138 240 247 287 299 290 278 252 245 249 251 247 247 245 245 248 245 251 247 242 230 239 237 239 241 242 243 241 237 239 238 240 241 243 242 245 247 251 254 253 252 252 254 253 243 236 232 228 240 250 251 252 255 257 258 260 262 263 262 263 264 267
267 217 203 207 204 202 208 209 202 197 204 215 214 221 216 215 208 214 224 228 235 200 180 178 244 120 176 328 287 326 324 310 269 261 256 251 243 244 245 247 250 244 232 229 240 239 242 240 241 239 239 239 236 232 233 234 232 231 232 238 242 247 249 247 246 247 248 244 230 220 222 238 249 250 250 251 255 258 258 259 257 255 257 262 264
288 295 267 216 206 207 209 208 210 199 198 207 208 217 218 222 219 221 217 228 222 233 171 174 197 138 277 228 252 79 306 285 303 281 231 239 239 246 248 249 252 247 229 239 242 241 241 233 239 236 239 237 232 229 230 231 228 229 229 234 239 241 243 244 243 243 249 250 237 221 229 244 248 249 252 250 252 253 251 250 252 255 257 258 260
271 265 276 276 244 219 212 211 209 206 202 209 211 213 211 214 214 218 214 222 232 224 206 186 203 193 221 288 311 287 237 292 332 286 353 309 246 237 243 249 252 248 235 243 244 241 240 238 238 239 238 235 233 230 230 228 228 231 235 239 238 236 237 240 241 242 242 245 245 229 224 231 241 246 245 247 247 245 247 249 250 253 254 255 257
280 252 256 256 257 248 229 215 215 210 206 213 216 211 210 211 212 216 221 217 225 224 230 200 211 212 219 233 213 200 206 246 8 298 313 244 269 263 258 252 258 260 249 249 246 244 234 242 235 239 234 232 230 231 225 225 222 222 222 231 233 231 233 236 237 239 241 242 241 241 228 235 242 240 242 240 238 240 241 242 247 247 248 249 247
357 345 317 269 264 265 246 229 220 216 211 216 218 216 214 211 207 212 223 225 220 230 227 220 210 222 216 221 230 238 231 286 263 329 312 316 248 282 287 246 250 256 255 252 253 248 244 234 240 239 236 228 229 227 224 225 220 214 219 219 225 228 232 234 234 234 237 241 243 239 236 235 236 234 231 232 233 233 235 237 239 239 238 239 241
6 6 4 357 342 299 269 262 245 231 223 219 223 222 219 215 209 214 220 222 220 225 234 220 209 225 215 226 229 232 234 240 247 256 265 293 296 251 234 277 288 257 248 258 252 250 250 238 240 236 235 231 224 222 223 219 223 222 223 220 220 225 229 230 230 231 235 240 239 238 235 232 230 228 227 229 226 229 230 230 230 230 231 234 232
8 6 4 358 353 350 341 309 272 265 246 239 232 226 221 218 213 213 221 225 223 225 228 228 215 227 202 222 229 234 236 232 235 227 232 252 265 280 285 280 260 262 266 245 251 248 245 248 237 234 234 234 223 223 218 218 220 215 218 216 219 222 226 230 230 234 241 240 235 233 231 228 225 221 225 222 222 224 225 225 226 227 230 229 229
5 7 2 358 355 351 349 347 329 287 266 253 248 241 235 231 224 218 216 219 217 217 223 229 226 224 219 214 216 229 230 234 228 226 232 225 248 270 270 292 301 280 224 302 282 253 256 250 246 237 233 233 226 221 218 219 215 212 216 215 220 222 226 230 233 237 241 238 233 231 227 225 219 218 220 218 216 219 221 223 224 227 228 228 229
4 2 2 357 353 352 354 347 343 340 312 277 254 250 243 235 233 231 226 221 221 223 224 230 231 227 222 216 225 220 223 232 232 219 220 225 237 253 269 254 261 287 278 236 256 261 249 245 245 242 237 233 227 219 220 221 214 216 210 210 218 222 224 228 233 236 239 235 232 231 227 224 222 217 217 215 214 218 220 223 225 227 227 228 229
360 359 358 356 355 350 349 348 349 346 346 334 309 265 253 247 243 237 234 231 228 225 224 225 225 227 226 224 227 233 233 232 237 232 219 236 236 254 264 273 271 248 281 285 264 260 250 244 237 236 232 234 228 220 221 218 218 212 207 213 216 219 222 225 230 235 237 234 232 230 227 222 218 218 215 216 216 219 222 224 226 225 226 228 228
3 359 355 351 350 350 350 352 349 348 343 338 337 335 300 248 245 251 247 239 232 230 227 228 226 227 229 224 223 221 226 226 233 236 234 232 230 242 255 251 260 278 272 248 279 262 242 246 241 234 232 231 228 219 217 214 218 207 205 215 213 219 221 224 228 232 234 233 232 230 225 219 217 218 217 216 217 220 222 224 223 221 224 223 214
355 1 351 344 347 345 343 347 347 344 340 339 342 341 341 322 275 248 244 243 241 239 235 234 231 230 230 234 227 227 230 228 227 225 229 227 232 231 250 252 229 262 276 260 258 304 272 232 238 231 229 229 229 218 217 218 216 209 201 209 214 215 218 220 223 227 233 233 232 229 223 217 216 218 220 216 217 218 219 220 212 214 212 201 199
356 352 347 349 345 343 347 349 350 348 346 346 348 347 343 336 334 306 273 257 242 236 238 237 238 238 232 229 229 225 229 232 229 228 221 218 221 227 232 262 263 243 268 262 265 233 260 269 229 236 228 230 222 220 219 214 216 204 200 210 216 210 215 216 218 221 226 232 230 226 222 217 218 219 222 219 208 209 215 208 195 192 196 203 205
352 349 348 349 346 346 347 347 346 348 350 350 348 347 346 343 336 342 335 316 280 265 258 253 246 243 239 236 234 233 229 227 224 221 216 218 223 225 222 229 247 270 256 273 260 263 241 260 268 229 224 219 220 214 213 215 216 204 198 206 208 209 211 214 216 218 220 224 225 224 222 220 219 221 223 222 204 205 205 196 187 183 196 207 212
352 351 347 348 348 348 349 351 349 347 348 349 348 347 347 345 345 344 343 339 333 314 284 270 262 253 248 246 243 245 241 234 230 223 219 219 222 226 224 223 223 235 259 260 268 261 274 180 250 297 235 220 221 212 211 216 213 194 197 203 205 205 205 210 214 214 213 214 223 224 222 222 221 222 222 222 216 204 202 196 199 199 198 208 218
352 350 349 350 351 352 352 350 351 352 351 347 347 346 347 347 344 342 339 335 329 327 320 295 275 267 253 251 242 244 241 235 235 226 220 218 216 217 227 230 217 223 233 253 268 244 263 205 213 252 276 231 235 227 215 223 211 195 198 202 204 206 202 205 211 211 209 210 217 224 224 222 222 221 223 225 226 217 209 206 207 208 208 208 216
353 352 351 351 351 351 351 348 349 351 351 350 347 346 346 344 345 341 341 339 335 330 330 328 312 288 271 261 255 255 254 241 239 236 230 226 222 217 215 211 218 222 229 240 260 262 197 261 227 226 242 247 228 245 241 238 210 199 207 205 208 203 198 207 208 207 205 207 211 215 218 221 221 222 224 228 233 223 210 210 210 207 208 208 210
352 349 350 350 349 349 349 348 347 347 349 349 349 346 344 345 344 341 338 337 338 338 337 335 330 321 293 268 256 251 254 252 244 239 237 233 233 228 218 215 218 215 217 225 238 266 224 234 240 227 210 239 234 215 247 242 209 198 215 209 208 200 202 209 207 206 205 207 208 207 207 209 216 220 227 232 235 234 219 216 214 208 205 187 130
352 350 350 348 347 347 346 348 348 346 346 346 346 346 345 343 343 340 338 341 340 339 334 333 335 334 329 315 288 261 256 250 245 243 239 234 229 233 231 220 219 212 212 221 237 253 271 199 245 233 217 181 227 209 234 233 225 213 221 222 201 200 202 201 200 208 206 204 203 201 200 203 210 218 224 230 235 238 228 219 213 201 138 121 126
353 349 348 347 346 344 345 344 345 345 343 343 342 343 343 341 340 342 342 340 337 334 335 333 334 333 327 324 322 308 279 255 252 248 244 241 230 228 232 229 225 224 215 223 226 234 260 242 218 228 229 196 233 182 203 222 237 193 211 220 212 201 199 195 195 203 203 200 198 197 199 201 208 217 225 238 233 209 208 207 156 119 127 124 131
349 349 345 344 343 343 342 342 341 342 342 339 340 339 338 337 336 338 340 339 335 332 331 330 330 329 325 325 320 323 317 291 259 247 243 240 236 233 232 225 229 223 217 215 222 231 239 259 242 234 217 214 218 220 206 210 218 192 208 214 207 202 205 194 192 195 196 197 195 196 198 202 206 211 217 220 191 164 142 130 133 132 124 134 155
344 344 345 340 342 342 340 338 340 339 338 337 336 335 334 333 335 335 334 333 330 328 324 325 326 325 324 321 320 323 321 317 301 272 250 241 235 234 235 232 229 230 218 217 220 225 235 246 255 221 224 213 235 236 202 198 193 192 206 214 201 202 198 193 198 190 193 194 197 197 198 198 200 200 195 172 151 147 145 140 137 134 136 152 173
340 341 339 341 340 340 339 336 335 336 334 333 331 330 330 328 331 331 328 327 326 325 323 320 320 320 319 315 316 318 319 314 311 306 284 256 244 238 232 231 230 226 226 223 222 222 230 236 253 236 205 216 220 210 196 186 210 205 198 201 199 201 197 196 187 198 193 197 200 198 193 190 185 178 168 158 151 147 145 143 141 143 152 167 174
334 336 334 336 338 334 333 331 330 328 328 329 326 325 324 326 327 325 322 321 321 319 318 317 318 318 313 314 311 312 312 309 308 308 309 294 266 240 238 236 229 227 227 225 224 223 224 231 233 254 211 210 231 229 207 198 181 200 215 223 214 198 187 187 197 186 180 188 193 200 190 181 173 165 160 158 155 153 150 149 149 152 162 172 171
329 330 330 330 330 329 326 326 326 324 325 324 323 321 322 325 324 322 320 319 316 317 315 313 313 309 308 306 305 305 303 305 305 311 316 315 312 298 265 242 230 230 228 228 223 225 226 228 230 233 244 222 213 230 229 206 201 188 189 200 219 207 196 192 188 168 160 169 193 192 190 180 171 167 164 160 158 155 153 152 154 158 166 171 175
319 324 324 324 323 322 320 320 317 318 318 319 318 318 320 321 319 318 318 316 316 314 312 310 308 306 303 302 302 301 301 301 304 304 302 303 303 302 301 282 247 230 230 229 226 225 229 229 228 229 227 236 222 234 165 170 211 240 205 189 209 201 201 201 194 174 171 169 167 155 118 118 127 136 148 149 155 155 154 152 154 158 162 167 176
308 310 309 314 316 318 316 314 314 314 313 312 313 317 319 316 316 314 314 313 312 310 311 310 307 306 304 303 300 301 300 297 294 290 289 287 290 301 301 302 290 250 227 225 223 223 230 231 234 227 228 227 225 211 199 202 202 207 201 203 225 198 188 187 221 201 173 170 174 161 168 172 154 159 156 156 159 149 152 152 153 155 160 166 169
307 305 305 300 302 308 312 312 311 309 306 304 303 305 307 309 311 310 308 309 307 306 306 306 306 305 303 301 301 299 297 295 294 292 292 295 295 289 287 294 296 295 271 235 223 221 224 228 229 227 223 227 223 212 212 215 212 193 167 189 210 200 173 202 188 212 184 167 157 179 202 185 163 153 157 158 153 160 156 160 171 165 165 163 161
304 306 307 304 301 297 298 303 307 308 301 297 298 300 303 304 305 305 306 305 304 302 300 301 301 304 303 303 301 300 300 298 299 300 300 299 299 301 300 293 286 278 284 280 248 219 217 224 227 226 226 231 227 211 215 215 204 200 198 188 197 173 185 187 204 237 218 176 178 173 180 195 166 163 169 164 162 161 167 175 168 159 157 155 156
299 300 298 298 299 297 295 293 292 296 298 295 293 294 296 298 298 299 301 300 300 298 298 297 296 297 298 300 300 300 298 299 301 302 300 299 301 300 299 302 303 296 276 261 274 268 231 223 227 227 225 231 232 214 215 211 206 206 203 192 191 185 195 202 201 197 187 167 169 177 184 174 171 161 164 176 168 165 168 166 167 160 157 157 154
292 294 292 293 292 292 292 292 290 289 287 292 294 295 293 293 295 296 293 294 294 295 293 292 292 290 292 295 296 296 298 297 298 298 298 301 300 298 299 299 295 294 293 280 260 256 269 255 233 229 221 225 231 224 210 208 193 203 199 204 197 198 194 202 208 192 158 174 158 163 180 189 180 174 174 171 167 159 158 168 169 161 157 159 153
284 285 288 287 288 287 285 287 288 288 288 280 285 290 293 293 293 292 289 290 289 288 289 288 286 287 288 288 291 293 295 296 297 297 298 299 300 302 302 300 299 299 297 292 276 260 253 255 257 251 236 218 225 222 212 191 188 200 197 202 196 196 198 206 208 191 157 166 174 163 165 184 189 182 177 162 158 154 160 168 168 162 159 155 153
281 284 286 288 284 283 283 282 282 284 283 282 284 285 287 290 292 292 288 285 286 285 283 283 283 282 283 282 282 283 288 291 292 293 298 298 297 297 296 296 296 296 293 291 287 279 263 251 251 257 260 239 227 226 206 191 199 200 195 194 193 198 205 189 85 114 161 186 181 163 195 180 159 167 181 156 149 148 153 166 164 159 155 151 154
274 277 277 275 280 281 281 282 283 282 281 279 281 282 284 285 288 289 287 284 283 281 281 280 279 279 278 278 280 282 282 284 286 289 291 292 292 293 292 294 295 292 284 279 279 280 276 265 252 250 250 248 235 228 211 195 202 203 203 208 202 188 159 169 193 154 173 198 189 185 164 161 176 170 158 144 141 147 154 154 165 159 152 150 156
282 279 276 276 276 279 281 281 281 281 280 278 277 278 281 283 285 283 283 283 281 280 277 277 276 276 276 275 275 279 283 281 283 287 290 291 291 290 290 290 290 290 289 291 288 286 279 268 259 254 252 251 243 231 219 201 198 195 190 188 198 179 185 193 197 167 194 181 199 203 152 156 173 159 131 143 154 154 151 156 163 160 152 153 160
284 281 279 278 274 272 275 277 276 279 280 277 276 279 280 280 279 279 278 279 280 279 280 275 273 272 271 272 273 276 277 279 283 284 288 292 289 287 286 291 293 292 291 297 302 294 288 275 261 253 249 248 246 239 225 208 202 190 184 201 195 178 194 193 191 196 189 184 197 171 145 177 151 135 120 100 85 48 137 144 154 155 153 158 164
279 281 279 277 275 273 270 271 273 274 278 278 279 279 279 279 278 277 276 276 277 277 279 279 275 270 270 270 270 272 274 277 279 284 289 291 288 285 286 287 288 288 290 303 308 310 307 303 286 266 258 254 251 245 239 228 211 195 195 202 186 182 194 199 188 145 168 225 200 170 162 143 152 163 141 120 123 85 120 157 156 148 147 148 157